Location: Bastogne Gables
(35.1554°N, 78.9900°W)
Time: 21:40:41
(UTC+00:00)

AQUARIUS - Pass Details

Date: 07 March 2021
Orbit: 650 x 652 km, 98.0° (Epoch: 16 April)

Event Time Altitude Azimuth Distance (km) Brightness Sun altitude
Rises 10:19:11 0° 39° (NE) 2,974 8.3 -16.8°
Reaches altitude 10° 10:23:09 10° 74° (ENE) 2,055 8.0 -16.0°
Maximum altitude 10:24:28 11° 92° (E) 1,977 8.0 -15.7°
Drops below altitude 10° 10:25:47 10° 109° (ESE) 2,051 7.8 -15.4°
Sets 10:29:42 0° 144° (SE) 2,953 8.0 -14.6°
